Year,Month,Day,Hour,Minute,Value (Times are PST for temperature in C)
2008,06,29,00,00,17.50
2008,06,29,00,01,17.50
2008,06,29,00,02,17.50
2008,06,29,00,03,17.50
2008,06,29,00,04,17.50
2008,06,29,00,05,17.50
2008,06,29,00,06,17.50
2008,06,29,00,07,17.50
2008,06,29,00,08,17.40
2008,06,29,00,09,17.40
2008,06,29,00,10,17.40
2008,06,29,00,11,17.40
2008,06,29,00,12,17.40
2008,06,29,00,13,17.40
2008,06,29,00,14,17.40
2008,06,29,00,15,17.40
2008,06,29,00,16,17.40
2008,06,29,00,17,17.40
2008,06,29,00,18,17.40
2008,06,29,00,19,17.30
2008,06,29,00,20,17.30
2008,06,29,00,21,17.30
2008,06,29,00,22,17.20
2008,06,29,00,23,17.20
2008,06,29,00,24,17.20
2008,06,29,00,25,17.10
2008,06,29,00,26,17.10
2008,06,29,00,27,17.10
2008,06,29,00,28,17.10
2008,06,29,00,29,17.10
2008,06,29,00,30,17.00
2008,06,29,00,31,17.00
2008,06,29,00,32,17.00
2008,06,29,00,33,17.00
2008,06,29,00,34,17.00
2008,06,29,00,35,16.90
2008,06,29,00,36,16.90
2008,06,29,00,37,16.90
2008,06,29,00,38,16.90
2008,06,29,00,39,16.90
2008,06,29,00,40,16.90
2008,06,29,00,41,16.90
2008,06,29,00,42,16.90
2008,06,29,00,43,16.90
2008,06,29,00,44,16.90
2008,06,29,00,45,16.90
2008,06,29,00,46,16.90
2008,06,29,00,47,16.90
2008,06,29,00,48,16.90
2008,06,29,00,49,16.90
2008,06,29,00,50,16.90
2008,06,29,00,51,16.90
2008,06,29,00,52,16.80
2008,06,29,00,53,16.80
2008,06,29,00,54,16.80
2008,06,29,00,55,16.80
2008,06,29,00,56,16.80
2008,06,29,00,57,16.80
2008,06,29,00,58,16.80
2008,06,29,00,59,16.80
2008,06,29,01,00,16.80
2008,06,29,01,01,16.80
2008,06,29,01,02,16.80
2008,06,29,01,03,16.80
2008,06,29,01,04,16.80
2008,06,29,01,05,16.80
2008,06,29,01,06,16.80
2008,06,29,01,07,16.80
2008,06,29,01,08,16.80
2008,06,29,01,09,16.80
2008,06,29,01,10,16.80
2008,06,29,01,11,16.80
2008,06,29,01,12,16.80
2008,06,29,01,13,16.80
2008,06,29,01,14,16.80
2008,06,29,01,15,16.70
2008,06,29,01,16,16.70
2008,06,29,01,17,16.70
2008,06,29,01,18,16.70
2008,06,29,01,19,16.70
2008,06,29,01,20,16.70
2008,06,29,01,21,16.70
2008,06,29,01,22,16.70
2008,06,29,01,23,16.70
2008,06,29,01,24,16.60
2008,06,29,01,25,16.60
2008,06,29,01,26,16.60
2008,06,29,01,27,16.60
2008,06,29,01,28,16.60
2008,06,29,01,29,16.60
2008,06,29,01,30,16.60
2008,06,29,01,31,16.60
2008,06,29,01,32,16.60
2008,06,29,01,33,16.60
2008,06,29,01,34,16.60
2008,06,29,01,35,16.60
2008,06,29,01,36,16.60
2008,06,29,01,37,16.60
2008,06,29,01,38,16.60
2008,06,29,01,39,16.60
2008,06,29,01,40,16.60
2008,06,29,01,41,16.60
2008,06,29,01,42,16.60
2008,06,29,01,43,16.50
2008,06,29,01,44,16.50
2008,06,29,01,45,16.50
2008,06,29,01,46,16.50
2008,06,29,01,47,16.40
2008,06,29,01,48,16.40
2008,06,29,01,49,16.40
2008,06,29,01,50,16.40
2008,06,29,01,51,16.40
2008,06,29,01,52,16.40
2008,06,29,01,53,16.40
2008,06,29,01,54,16.40
2008,06,29,01,55,16.30
2008,06,29,01,56,16.30
2008,06,29,01,57,16.30
2008,06,29,01,58,16.30
2008,06,29,01,59,16.30
2008,06,29,02,00,16.30
2008,06,29,02,01,16.30
2008,06,29,02,02,16.30
2008,06,29,02,03,16.30
2008,06,29,02,04,16.30
2008,06,29,02,05,16.30
2008,06,29,02,06,16.30
2008,06,29,02,07,16.30
2008,06,29,02,08,16.30
2008,06,29,02,09,16.30
2008,06,29,02,10,16.30
2008,06,29,02,11,16.30
2008,06,29,02,12,16.30
2008,06,29,02,13,16.30
2008,06,29,02,14,16.30
2008,06,29,02,15,16.30
2008,06,29,02,16,16.30
2008,06,29,02,17,16.20
2008,06,29,02,18,16.20
2008,06,29,02,19,16.20
2008,06,29,02,20,16.20
2008,06,29,02,21,16.20
2008,06,29,02,22,16.20
2008,06,29,02,23,16.20
2008,06,29,02,24,16.20
2008,06,29,02,25,16.10
2008,06,29,02,26,16.10
2008,06,29,02,27,16.10
2008,06,29,02,28,16.10
2008,06,29,02,29,16.10
2008,06,29,02,30,16.10
2008,06,29,02,31,16.10
2008,06,29,02,32,16.10
2008,06,29,02,33,16.10
2008,06,29,02,34,16.10
2008,06,29,02,35,16.10
2008,06,29,02,36,16.10
2008,06,29,02,37,16.10
2008,06,29,02,38,16.10
2008,06,29,02,39,16.00
2008,06,29,02,40,16.00
2008,06,29,02,41,16.00
2008,06,29,02,42,16.00
2008,06,29,02,43,15.90
2008,06,29,02,44,15.90
2008,06,29,02,45,15.90
2008,06,29,02,46,15.90
2008,06,29,02,47,15.90
2008,06,29,02,48,15.90
2008,06,29,02,49,15.90
2008,06,29,02,50,15.90
2008,06,29,02,51,15.80
2008,06,29,02,52,15.80
2008,06,29,02,53,15.80
2008,06,29,02,54,15.80
2008,06,29,02,55,15.80
2008,06,29,02,56,15.80
2008,06,29,02,57,15.80
2008,06,29,02,58,15.80
2008,06,29,02,59,15.80
2008,06,29,03,00,15.80
2008,06,29,03,01,15.80
2008,06,29,03,02,15.80
2008,06,29,03,03,15.80
2008,06,29,03,04,15.80
2008,06,29,03,05,15.70
2008,06,29,03,06,15.70
2008,06,29,03,07,15.70
2008,06,29,03,08,15.70
2008,06,29,03,09,15.70
2008,06,29,03,10,15.70
2008,06,29,03,11,15.60
2008,06,29,03,12,15.60
2008,06,29,03,13,15.60
2008,06,29,03,14,15.60
2008,06,29,03,15,15.60
2008,06,29,03,16,15.60
2008,06,29,03,17,15.60
2008,06,29,03,18,15.60
2008,06,29,03,19,15.60
2008,06,29,03,20,15.60
2008,06,29,03,21,15.60
2008,06,29,03,22,15.60
2008,06,29,03,23,15.60
2008,06,29,03,24,15.60
2008,06,29,03,25,15.60
2008,06,29,03,26,15.60
2008,06,29,03,27,15.60
2008,06,29,03,28,15.60
2008,06,29,03,29,15.60
2008,06,29,03,30,15.60
2008,06,29,03,31,15.60
2008,06,29,03,32,15.60
2008,06,29,03,33,15.60
2008,06,29,03,34,15.60
2008,06,29,03,35,15.60
2008,06,29,03,36,15.60
2008,06,29,03,37,15.60
2008,06,29,03,38,15.60
2008,06,29,03,39,15.60
2008,06,29,03,40,15.60
2008,06,29,03,41,15.60
2008,06,29,03,42,15.60
2008,06,29,03,43,15.60
2008,06,29,03,44,15.60
2008,06,29,03,45,15.60
2008,06,29,03,46,15.60
2008,06,29,03,47,15.60
2008,06,29,03,48,15.60
2008,06,29,03,49,15.50
2008,06,29,03,50,15.50
2008,06,29,03,51,15.50
2008,06,29,03,52,15.50
2008,06,29,03,53,15.50
2008,06,29,03,54,15.50
2008,06,29,03,55,15.50
2008,06,29,03,56,15.50
2008,06,29,03,57,15.50
2008,06,29,03,58,15.50
2008,06,29,03,59,15.50
2008,06,29,04,00,15.50
2008,06,29,04,01,15.50
2008,06,29,04,02,15.50
2008,06,29,04,03,15.50
2008,06,29,04,04,15.40
2008,06,29,04,05,15.40
2008,06,29,04,06,15.40
2008,06,29,04,07,15.40
2008,06,29,04,08,15.40
2008,06,29,04,09,15.40
2008,06,29,04,10,15.50
2008,06,29,04,11,15.50
2008,06,29,04,12,15.50
2008,06,29,04,13,15.50
2008,06,29,04,14,15.60
2008,06,29,04,15,15.60
2008,06,29,04,16,15.60
2008,06,29,04,17,15.60
2008,06,29,04,18,15.60
2008,06,29,04,19,15.60
2008,06,29,04,20,15.60
2008,06,29,04,21,15.60
2008,06,29,04,22,15.60
2008,06,29,04,23,15.60
2008,06,29,04,24,15.60
2008,06,29,04,25,15.60
2008,06,29,04,26,15.60
2008,06,29,04,27,15.60
2008,06,29,04,28,15.60
2008,06,29,04,29,15.60
2008,06,29,04,30,15.60
2008,06,29,04,31,15.60
2008,06,29,04,32,15.60
2008,06,29,04,33,15.60
2008,06,29,04,34,15.60
2008,06,29,04,35,15.60
2008,06,29,04,36,15.60
2008,06,29,04,37,15.70
2008,06,29,04,38,15.70
2008,06,29,04,39,15.70
2008,06,29,04,40,15.70
2008,06,29,04,41,15.70
2008,06,29,04,42,15.70
2008,06,29,04,43,15.70
2008,06,29,04,44,15.70
2008,06,29,04,45,15.70
2008,06,29,04,46,15.70
2008,06,29,04,47,15.70
2008,06,29,04,48,15.70
2008,06,29,04,49,15.70
2008,06,29,04,50,15.70
2008,06,29,04,51,15.70
2008,06,29,04,52,15.70
2008,06,29,04,53,15.70
2008,06,29,04,54,15.70
2008,06,29,04,55,15.70
2008,06,29,04,56,15.70
2008,06,29,04,57,15.70
2008,06,29,04,58,15.70
2008,06,29,04,59,15.70
2008,06,29,05,00,15.70
2008,06,29,05,01,15.70
2008,06,29,05,02,15.70
2008,06,29,05,03,15.70
2008,06,29,05,04,15.70
2008,06,29,05,05,15.70
2008,06,29,05,06,15.70
2008,06,29,05,07,15.70
2008,06,29,05,08,15.70
2008,06,29,05,09,15.70
2008,06,29,05,10,15.70
2008,06,29,05,11,15.80
2008,06,29,05,12,15.80
2008,06,29,05,13,15.70
2008,06,29,05,14,15.80
2008,06,29,05,15,15.70
2008,06,29,05,16,15.70
2008,06,29,05,17,15.70
2008,06,29,05,18,15.70
2008,06,29,05,19,15.70
2008,06,29,05,20,15.70
2008,06,29,05,21,15.70
2008,06,29,05,22,15.80
2008,06,29,05,23,15.80
2008,06,29,05,24,15.80
2008,06,29,05,25,15.80
2008,06,29,05,26,15.80
2008,06,29,05,27,15.80
2008,06,29,05,28,15.80
2008,06,29,05,29,15.80
2008,06,29,05,30,15.80
2008,06,29,05,31,15.80
2008,06,29,05,32,15.80
2008,06,29,05,33,15.80
2008,06,29,05,34,15.80
2008,06,29,05,35,15.80
2008,06,29,05,36,15.80
2008,06,29,05,37,15.80
2008,06,29,05,38,15.80
2008,06,29,05,39,15.80
2008,06,29,05,40,15.80
2008,06,29,05,41,15.80
2008,06,29,05,42,15.80
2008,06,29,05,43,15.80
2008,06,29,05,44,15.90
2008,06,29,05,45,15.90
2008,06,29,05,46,15.90
2008,06,29,05,47,15.90
2008,06,29,05,48,15.90
2008,06,29,05,49,15.90
2008,06,29,05,50,15.90
2008,06,29,05,51,16.00
2008,06,29,05,52,16.00
2008,06,29,05,53,16.00
2008,06,29,05,54,16.00
2008,06,29,05,55,16.10
2008,06,29,05,56,16.10
2008,06,29,05,57,16.10
2008,06,29,05,58,16.10
2008,06,29,05,59,16.10
2008,06,29,06,00,16.10
2008,06,29,06,01,16.10
2008,06,29,06,02,16.10
2008,06,29,06,03,16.10
2008,06,29,06,04,16.20
2008,06,29,06,05,16.20
2008,06,29,06,06,16.20
2008,06,29,06,07,16.20
2008,06,29,06,08,16.30
2008,06,29,06,09,16.30
2008,06,29,06,10,16.30
2008,06,29,06,11,16.30
2008,06,29,06,12,16.30
2008,06,29,06,13,16.30
2008,06,29,06,14,16.20
2008,06,29,06,15,16.20
2008,06,29,06,16,16.20
2008,06,29,06,17,16.20
2008,06,29,06,18,16.20
2008,06,29,06,19,16.20
2008,06,29,06,20,16.20
2008,06,29,06,21,16.20
2008,06,29,06,22,16.20
2008,06,29,06,23,16.20
2008,06,29,06,24,16.20
2008,06,29,06,25,16.30
2008,06,29,06,26,16.30
2008,06,29,06,27,16.30
2008,06,29,06,28,16.40
2008,06,29,06,29,16.40
2008,06,29,06,30,16.40
2008,06,29,06,31,16.50
2008,06,29,06,32,16.50
2008,06,29,06,33,16.60
2008,06,29,06,34,16.60
2008,06,29,06,35,16.70
2008,06,29,06,36,16.70
2008,06,29,06,37,16.80
2008,06,29,06,38,16.80
2008,06,29,06,39,16.80
2008,06,29,06,40,16.90
2008,06,29,06,41,17.00
2008,06,29,06,42,17.00
2008,06,29,06,43,17.10
2008,06,29,06,44,17.20
2008,06,29,06,45,17.30
2008,06,29,06,46,17.40
2008,06,29,06,47,17.50
2008,06,29,06,48,17.70
2008,06,29,06,49,18.00
2008,06,29,06,50,18.20
2008,06,29,06,51,18.40
2008,06,29,06,52,18.60
2008,06,29,06,53,18.80
2008,06,29,06,54,19.00
2008,06,29,06,55,19.20
2008,06,29,06,56,19.40
2008,06,29,06,57,19.70
2008,06,29,06,58,19.90
2008,06,29,06,59,20.00
2008,06,29,07,00,20.10
2008,06,29,07,01,20.20
2008,06,29,07,02,20.30
2008,06,29,07,03,20.40
2008,06,29,07,04,20.50
2008,06,29,07,05,20.60
2008,06,29,07,06,20.70
2008,06,29,07,07,20.80
2008,06,29,07,08,20.80
2008,06,29,07,09,20.90
2008,06,29,07,10,21.00
2008,06,29,07,11,21.00
2008,06,29,07,12,21.10
2008,06,29,07,13,21.20
2008,06,29,07,14,21.30
2008,06,29,07,15,21.30
2008,06,29,07,16,21.30
2008,06,29,07,17,21.30
2008,06,29,07,18,21.40
2008,06,29,07,19,21.40
2008,06,29,07,20,21.40
2008,06,29,07,21,21.50
2008,06,29,07,22,21.50
2008,06,29,07,23,21.50
2008,06,29,07,24,21.60
2008,06,29,07,25,21.60
2008,06,29,07,26,21.60
2008,06,29,07,27,21.60
2008,06,29,07,28,21.70
2008,06,29,07,29,21.70
2008,06,29,07,30,21.80
2008,06,29,07,31,21.80
2008,06,29,07,32,21.80
2008,06,29,07,33,21.80
2008,06,29,07,34,21.90
2008,06,29,07,35,22.00
2008,06,29,07,36,22.00
2008,06,29,07,37,22.00
2008,06,29,07,38,22.10
2008,06,29,07,39,22.10
2008,06,29,07,40,22.10
2008,06,29,07,41,22.20
2008,06,29,07,42,22.20
2008,06,29,07,43,22.20
2008,06,29,07,44,22.20
2008,06,29,07,45,22.30
2008,06,29,07,46,22.30
2008,06,29,07,47,22.30
2008,06,29,07,48,22.30
2008,06,29,07,49,22.30
2008,06,29,07,50,22.40
2008,06,29,07,51,22.40
2008,06,29,07,52,22.40
2008,06,29,07,53,22.40
2008,06,29,07,54,22.40
2008,06,29,07,55,22.50
2008,06,29,07,56,22.50
2008,06,29,07,57,22.50
2008,06,29,07,58,22.60
2008,06,29,07,59,22.60
2008,06,29,08,00,22.60
2008,06,29,08,01,22.70
2008,06,29,08,02,22.70
2008,06,29,08,03,22.70
2008,06,29,08,04,22.70
2008,06,29,08,05,22.80
2008,06,29,08,06,22.80
2008,06,29,08,07,22.80
2008,06,29,08,08,22.80
2008,06,29,08,09,22.90
2008,06,29,08,10,22.90
2008,06,29,08,11,22.90
2008,06,29,08,12,23.00
2008,06,29,08,13,23.00
2008,06,29,08,14,23.10
2008,06,29,08,15,23.10
2008,06,29,08,16,23.20
2008,06,29,08,17,23.20
2008,06,29,08,18,23.20
2008,06,29,08,19,23.20
2008,06,29,08,20,23.20
2008,06,29,08,21,23.20
2008,06,29,08,22,23.20
2008,06,29,08,23,23.30
2008,06,29,08,24,23.40
2008,06,29,08,25,23.40
2008,06,29,08,26,23.40
2008,06,29,08,27,23.50
2008,06,29,08,28,23.50
2008,06,29,08,29,23.60
2008,06,29,08,30,23.60
2008,06,29,08,31,23.60
2008,06,29,08,32,23.60
2008,06,29,08,33,23.70
2008,06,29,08,34,23.70
2008,06,29,08,35,23.80
2008,06,29,08,36,23.90
2008,06,29,08,37,23.90
2008,06,29,08,38,23.90
2008,06,29,08,39,23.90
2008,06,29,08,40,23.90
2008,06,29,08,41,23.90
2008,06,29,08,42,23.90
2008,06,29,08,43,23.90
2008,06,29,08,44,23.90
2008,06,29,08,45,23.90
2008,06,29,08,46,23.90
2008,06,29,08,47,23.90
2008,06,29,08,48,23.90
2008,06,29,08,49,23.90
2008,06,29,08,50,24.00
2008,06,29,08,51,24.00
2008,06,29,08,52,24.10
2008,06,29,08,53,24.10
2008,06,29,08,54,24.10
2008,06,29,08,55,24.10
2008,06,29,08,56,24.10
2008,06,29,08,57,24.20
2008,06,29,08,58,24.20
2008,06,29,08,59,24.10
2008,06,29,09,00,24.10
2008,06,29,09,01,24.20
2008,06,29,09,02,24.20
2008,06,29,09,03,24.20
2008,06,29,09,04,24.30
2008,06,29,09,05,24.30
2008,06,29,09,06,24.30
2008,06,29,09,07,24.30
2008,06,29,09,08,24.40
2008,06,29,09,09,24.40
2008,06,29,09,10,24.50
2008,06,29,09,11,24.60
2008,06,29,09,12,24.60
2008,06,29,09,13,24.60
2008,06,29,09,14,24.70
2008,06,29,09,15,24.70
2008,06,29,09,16,24.80
2008,06,29,09,17,24.90
2008,06,29,09,18,24.90
2008,06,29,09,19,24.90
2008,06,29,09,20,24.90
2008,06,29,09,21,24.90
2008,06,29,09,22,25.00
2008,06,29,09,23,25.10
2008,06,29,09,24,25.20
2008,06,29,09,25,25.20
2008,06,29,09,26,25.30
2008,06,29,09,27,25.30
2008,06,29,09,28,25.40
2008,06,29,09,29,25.50
2008,06,29,09,30,25.60
2008,06,29,09,31,25.70
2008,06,29,09,32,25.80
2008,06,29,09,33,25.80
2008,06,29,09,34,25.80
2008,06,29,09,35,25.90
2008,06,29,09,36,25.90
2008,06,29,09,37,25.90
2008,06,29,09,38,25.90
2008,06,29,09,39,25.90
2008,06,29,09,40,25.90
2008,06,29,09,41,25.90
2008,06,29,09,42,26.00
2008,06,29,09,43,26.00
2008,06,29,09,44,26.00
2008,06,29,09,45,26.10
2008,06,29,09,46,26.20
2008,06,29,09,47,26.20
2008,06,29,09,48,26.30
2008,06,29,09,49,26.50
2008,06,29,09,50,26.50
2008,06,29,09,51,26.60
2008,06,29,09,52,26.70
2008,06,29,09,53,26.80
2008,06,29,09,54,26.80
2008,06,29,09,55,26.80
2008,06,29,09,56,26.90
2008,06,29,09,57,27.00
2008,06,29,09,58,27.00
2008,06,29,09,59,27.10
2008,06,29,10,00,27.10
2008,06,29,10,01,27.20
2008,06,29,10,02,27.20
2008,06,29,10,03,27.30
2008,06,29,10,04,27.30
2008,06,29,10,05,27.40
2008,06,29,10,06,27.40
2008,06,29,10,07,27.30
2008,06,29,10,08,27.30
2008,06,29,10,09,27.20
2008,06,29,10,10,27.00
2008,06,29,10,11,26.70
2008,06,29,10,12,26.50
2008,06,29,10,13,26.40
2008,06,29,10,14,26.40
2008,06,29,10,15,26.50
2008,06,29,10,16,26.50
2008,06,29,10,17,26.60
2008,06,29,10,18,26.60
2008,06,29,10,19,26.60
2008,06,29,10,20,26.70
2008,06,29,10,21,26.70
2008,06,29,10,22,26.70
2008,06,29,10,23,26.80
2008,06,29,10,24,26.90
2008,06,29,10,25,26.90
2008,06,29,10,26,26.80
2008,06,29,10,27,26.80
2008,06,29,10,28,26.90
2008,06,29,10,29,26.90
2008,06,29,10,30,27.00
2008,06,29,10,31,27.20
2008,06,29,10,32,27.30
2008,06,29,10,33,27.50
2008,06,29,10,34,27.60
2008,06,29,10,35,27.70
2008,06,29,10,36,27.80
2008,06,29,10,37,27.80
2008,06,29,10,38,27.90
2008,06,29,10,39,27.90
2008,06,29,10,40,27.90
2008,06,29,10,41,28.00
2008,06,29,10,42,28.00
2008,06,29,10,43,28.00
2008,06,29,10,44,27.90
2008,06,29,10,45,27.90
2008,06,29,10,46,27.90
2008,06,29,10,47,28.00
2008,06,29,10,48,28.10
2008,06,29,10,49,28.10
2008,06,29,10,50,28.10
2008,06,29,10,51,28.10
2008,06,29,10,52,28.20
2008,06,29,10,53,28.30
2008,06,29,10,54,28.30
2008,06,29,10,55,28.20
2008,06,29,10,56,28.20
2008,06,29,10,57,28.20
2008,06,29,10,58,28.20
2008,06,29,10,59,28.20
2008,06,29,11,00,28.20
2008,06,29,11,01,28.10
2008,06,29,11,02,28.10
2008,06,29,11,03,28.10
2008,06,29,11,04,28.20
2008,06,29,11,05,28.20
2008,06,29,11,06,28.30
2008,06,29,11,07,28.40
2008,06,29,11,08,28.40
2008,06,29,11,09,28.50
2008,06,29,11,10,28.50
2008,06,29,11,11,28.60
2008,06,29,11,12,28.60
2008,06,29,11,13,28.50
2008,06,29,11,14,28.40
2008,06,29,11,15,28.40
2008,06,29,11,16,28.30
2008,06,29,11,17,28.20
2008,06,29,11,18,28.20
2008,06,29,11,19,28.20
2008,06,29,11,20,28.20
2008,06,29,11,21,28.20
2008,06,29,11,22,28.30
2008,06,29,11,23,28.30
2008,06,29,11,24,28.30
2008,06,29,11,25,28.30
2008,06,29,11,26,28.20
2008,06,29,11,27,28.20
2008,06,29,11,28,28.30
2008,06,29,11,29,28.30
2008,06,29,11,30,28.30
2008,06,29,11,31,28.30
2008,06,29,11,32,28.30
2008,06,29,11,33,28.40
2008,06,29,11,34,28.50
2008,06,29,11,35,28.50
2008,06,29,11,36,28.50
2008,06,29,11,37,28.50
2008,06,29,11,38,28.40
2008,06,29,11,39,28.30
2008,06,29,11,40,28.20
2008,06,29,11,41,28.20
2008,06,29,11,42,28.10
2008,06,29,11,43,28.10
2008,06,29,11,44,28.10
2008,06,29,11,45,28.20
2008,06,29,11,46,28.10
2008,06,29,11,47,28.00
2008,06,29,11,48,27.90
2008,06,29,11,49,27.90
2008,06,29,11,50,27.90
2008,06,29,11,51,27.90
2008,06,29,11,52,27.90
2008,06,29,11,53,27.90
2008,06,29,11,54,27.80
2008,06,29,11,55,27.80
2008,06,29,11,56,28.00
2008,06,29,11,57,28.10
2008,06,29,11,58,28.20
2008,06,29,11,59,28.30
2008,06,29,12,00,28.30
2008,06,29,12,01,28.40
2008,06,29,12,02,28.30
2008,06,29,12,03,28.10
2008,06,29,12,04,27.80
2008,06,29,12,05,27.40
2008,06,29,12,06,27.20
2008,06,29,12,07,27.10
2008,06,29,12,08,27.00
2008,06,29,12,09,26.90
2008,06,29,12,10,26.80
2008,06,29,12,11,26.70
2008,06,29,12,12,26.80
2008,06,29,12,13,26.90
2008,06,29,12,14,27.00
2008,06,29,12,15,27.10
2008,06,29,12,16,27.00
2008,06,29,12,17,26.90
2008,06,29,12,18,26.90
2008,06,29,12,19,27.00
2008,06,29,12,20,27.00
2008,06,29,12,21,27.10
2008,06,29,12,22,27.10
2008,06,29,12,23,27.20
2008,06,29,12,24,27.20
2008,06,29,12,25,27.20
2008,06,29,12,26,27.20
2008,06,29,12,27,27.20
2008,06,29,12,28,27.20
2008,06,29,12,29,27.20
2008,06,29,12,30,27.40
2008,06,29,12,31,27.50
2008,06,29,12,32,27.70
2008,06,29,12,33,27.70
2008,06,29,12,34,27.80
2008,06,29,12,35,27.80
2008,06,29,12,36,27.80
2008,06,29,12,37,27.80
2008,06,29,12,38,27.70
2008,06,29,12,39,27.80
2008,06,29,12,40,27.90
2008,06,29,12,41,28.00
2008,06,29,12,42,28.00
2008,06,29,12,43,28.10
2008,06,29,12,44,28.20
2008,06,29,12,45,28.30
2008,06,29,12,46,28.60
2008,06,29,12,47,28.80
2008,06,29,12,48,28.90
2008,06,29,12,49,29.00
2008,06,29,12,50,29.00
2008,06,29,12,51,29.10
2008,06,29,12,52,29.20
2008,06,29,12,53,29.30
2008,06,29,12,54,29.40
2008,06,29,12,55,29.40
2008,06,29,12,56,29.30
2008,06,29,12,57,29.20
2008,06,29,12,58,29.10
2008,06,29,12,59,28.90
2008,06,29,13,00,28.70
2008,06,29,13,01,28.60
2008,06,29,13,02,28.60
2008,06,29,13,03,28.80
2008,06,29,13,04,28.80
2008,06,29,13,05,28.80
2008,06,29,13,06,28.80
2008,06,29,13,07,28.80
2008,06,29,13,08,28.80
2008,06,29,13,09,28.90
2008,06,29,13,10,29.00
2008,06,29,13,11,29.10
2008,06,29,13,12,29.20
2008,06,29,13,13,29.30
2008,06,29,13,14,29.30
2008,06,29,13,15,29.40
2008,06,29,13,16,29.40
2008,06,29,13,17,29.40
2008,06,29,13,18,29.40
2008,06,29,13,19,29.40
2008,06,29,13,20,29.50
2008,06,29,13,21,29.70
2008,06,29,13,22,29.80
2008,06,29,13,23,29.90
2008,06,29,13,24,30.00
2008,06,29,13,25,30.10
2008,06,29,13,26,30.20
2008,06,29,13,27,30.40
2008,06,29,13,28,30.50
2008,06,29,13,29,30.50
2008,06,29,13,30,30.50
2008,06,29,13,31,30.40
2008,06,29,13,32,30.40
2008,06,29,13,33,30.30
2008,06,29,13,34,30.30
2008,06,29,13,35,30.30
2008,06,29,13,36,30.10
2008,06,29,13,37,29.90
2008,06,29,13,38,29.70
2008,06,29,13,39,29.60
2008,06,29,13,40,29.50
2008,06,29,13,41,29.30
2008,06,29,13,42,29.30
2008,06,29,13,43,29.30
2008,06,29,13,44,29.20
2008,06,29,13,45,29.20
2008,06,29,13,46,29.30
2008,06,29,13,47,29.40
2008,06,29,13,48,29.50
2008,06,29,13,49,29.60
2008,06,29,13,50,29.80
2008,06,29,13,51,29.90
2008,06,29,13,52,30.10
2008,06,29,13,53,30.20
2008,06,29,13,54,30.40
2008,06,29,13,55,30.50
2008,06,29,13,56,30.60
2008,06,29,13,57,30.60
2008,06,29,13,58,30.60
2008,06,29,13,59,30.40
2008,06,29,14,00,30.30
2008,06,29,14,01,30.30
2008,06,29,14,02,30.20
2008,06,29,14,03,30.20
2008,06,29,14,04,30.10
2008,06,29,14,05,30.10
2008,06,29,14,06,29.90
2008,06,29,14,07,29.70
2008,06,29,14,08,29.50
2008,06,29,14,09,29.50
2008,06,29,14,10,29.50
2008,06,29,14,11,29.50
2008,06,29,14,12,29.60
2008,06,29,14,13,29.60
2008,06,29,14,14,29.60
2008,06,29,14,15,29.50
2008,06,29,14,16,29.50
2008,06,29,14,17,29.40
2008,06,29,14,18,29.50
2008,06,29,14,19,29.40
2008,06,29,14,20,29.50
2008,06,29,14,21,29.50
2008,06,29,14,22,29.60
2008,06,29,14,23,29.70
2008,06,29,14,24,29.80
2008,06,29,14,25,30.00
2008,06,29,14,26,30.20
2008,06,29,14,27,30.30
2008,06,29,14,28,30.20
2008,06,29,14,29,30.10
2008,06,29,14,30,30.00
2008,06,29,14,31,29.90
2008,06,29,14,32,29.90
2008,06,29,14,33,29.90
2008,06,29,14,34,29.90
2008,06,29,14,35,29.90
2008,06,29,14,36,29.80
2008,06,29,14,37,29.80
2008,06,29,14,38,29.80
2008,06,29,14,39,29.60
2008,06,29,14,40,29.60
2008,06,29,14,41,29.60
2008,06,29,14,42,29.50
2008,06,29,14,43,29.50
2008,06,29,14,44,29.50
2008,06,29,14,45,29.60
2008,06,29,14,46,29.60
2008,06,29,14,47,29.60
2008,06,29,14,48,29.60
2008,06,29,14,49,29.50
2008,06,29,14,50,29.40
2008,06,29,14,51,29.50
2008,06,29,14,52,29.50
2008,06,29,14,53,29.50
2008,06,29,14,54,29.60
2008,06,29,14,55,29.70
2008,06,29,14,56,29.80
2008,06,29,14,57,29.90
2008,06,29,14,58,30.00
2008,06,29,14,59,30.10
2008,06,29,15,00,30.00
2008,06,29,15,01,30.00
2008,06,29,15,02,29.90
2008,06,29,15,03,29.90
2008,06,29,15,04,29.90
2008,06,29,15,05,29.80
2008,06,29,15,06,29.70
2008,06,29,15,07,29.70
2008,06,29,15,08,29.70
2008,06,29,15,09,29.80
2008,06,29,15,10,29.90
2008,06,29,15,11,30.00
2008,06,29,15,12,30.00
2008,06,29,15,13,30.10
2008,06,29,15,14,30.10
2008,06,29,15,15,30.20
2008,06,29,15,16,30.30
2008,06,29,15,17,30.30
2008,06,29,15,18,30.30
2008,06,29,15,19,30.30
2008,06,29,15,20,30.30
2008,06,29,15,21,30.20
2008,06,29,15,22,30.20
2008,06,29,15,23,30.20
2008,06,29,15,24,30.30
2008,06,29,15,25,30.30
2008,06,29,15,26,30.20
2008,06,29,15,27,30.10
2008,06,29,15,28,29.90
2008,06,29,15,29,29.70
2008,06,29,15,30,29.60
2008,06,29,15,31,29.60
2008,06,29,15,32,29.70
2008,06,29,15,33,29.60
2008,06,29,15,34,29.60
2008,06,29,15,35,29.50
2008,06,29,15,36,29.40
2008,06,29,15,37,29.40
2008,06,29,15,38,29.30
2008,06,29,15,39,29.30
2008,06,29,15,40,29.30
2008,06,29,15,41,29.30
2008,06,29,15,42,29.30
2008,06,29,15,43,29.30
2008,06,29,15,44,29.30
2008,06,29,15,45,29.50
2008,06,29,15,46,29.50
2008,06,29,15,47,29.50
2008,06,29,15,48,29.50
2008,06,29,15,49,29.50
2008,06,29,15,50,29.50
2008,06,29,15,51,29.40
2008,06,29,15,52,29.40
2008,06,29,15,53,29.50
2008,06,29,15,54,29.60
2008,06,29,15,55,29.70
2008,06,29,15,56,29.80
2008,06,29,15,57,29.80
2008,06,29,15,58,29.80
2008,06,29,15,59,29.80
2008,06,29,16,00,29.80
2008,06,29,16,01,29.80
2008,06,29,16,02,29.70
2008,06,29,16,03,29.80
2008,06,29,16,04,29.80
2008,06,29,16,05,29.80
2008,06,29,16,06,29.70
2008,06,29,16,07,29.70
2008,06,29,16,08,29.60
2008,06,29,16,09,29.50
2008,06,29,16,10,29.40
2008,06,29,16,11,29.40
2008,06,29,16,12,29.40
2008,06,29,16,13,29.40
2008,06,29,16,14,29.30
2008,06,29,16,15,29.30
2008,06,29,16,16,29.40
2008,06,29,16,17,29.40
2008,06,29,16,18,29.50
2008,06,29,16,19,29.50
2008,06,29,16,20,29.60
2008,06,29,16,21,29.60
2008,06,29,16,22,29.70
2008,06,29,16,23,29.70
2008,06,29,16,24,29.70
2008,06,29,16,25,29.70
2008,06,29,16,26,29.70
2008,06,29,16,27,29.60
2008,06,29,16,28,29.50
2008,06,29,16,29,29.50
2008,06,29,16,30,29.40
2008,06,29,16,31,29.40
2008,06,29,16,32,29.40
2008,06,29,16,33,29.40
2008,06,29,16,34,29.40
2008,06,29,16,35,29.30
2008,06,29,16,36,29.30
2008,06,29,16,37,29.30
2008,06,29,16,38,29.30
2008,06,29,16,39,29.30
2008,06,29,16,40,29.20
2008,06,29,16,41,29.10
2008,06,29,16,42,29.10
2008,06,29,16,43,29.10
2008,06,29,16,44,29.20
2008,06,29,16,45,29.10
2008,06,29,16,46,29.10
2008,06,29,16,47,29.10
2008,06,29,16,48,29.20
2008,06,29,16,49,29.20
2008,06,29,16,50,29.30
2008,06,29,16,51,29.30
2008,06,29,16,52,29.30
2008,06,29,16,53,29.30
2008,06,29,16,54,29.20
2008,06,29,16,55,29.20
2008,06,29,16,56,29.20
2008,06,29,16,57,29.10
2008,06,29,16,58,29.00
2008,06,29,16,59,28.90
2008,06,29,17,00,28.60
2008,06,29,17,01,28.50
2008,06,29,17,02,28.30
2008,06,29,17,03,28.20
2008,06,29,17,04,28.10
2008,06,29,17,05,28.00
2008,06,29,17,06,27.90
2008,06,29,17,07,27.90
2008,06,29,17,08,28.00
2008,06,29,17,09,28.10
2008,06,29,17,10,28.10
2008,06,29,17,11,28.10
2008,06,29,17,12,28.00
2008,06,29,17,13,28.00
2008,06,29,17,14,28.00
2008,06,29,17,15,28.00
2008,06,29,17,16,28.00
2008,06,29,17,17,28.10
2008,06,29,17,18,28.10
2008,06,29,17,19,28.20